This demonstration page uses our WeatherBlox Daily Observations layout. Learn more.

Hourly Observations for June 3, 2020

Temp ( °F °C ) Dew Point ( °F °C ) Humidity (%) Winds ( mph kmh ) Pressure ( in mb ) Visibility ( mi km ) Precip ( " mm )
12:54 am 00:54 Clear 76 24.4 66 18.9 72 72 S 5 7 29.84 1010 10 16.0934 0 0
1:54 am 01:54 Clear 75 23.9 66 18.9 74 74 Calm 29.83 1010 10 16.0934 0 0
2:54 am 02:54 Clear 74 23.3 64 17.8 71 71 N 8 13 29.82 1010 10 16.0934 0 0
3:54 am 03:54 Clear 72 22.2 61 16.1 68 68 N 7 11 29.83 1010 10 16.0934 0 0
4:54 am 04:54 Clear 72 22.2 60 15.6 66 66 NW 9 15 29.84 1011 10 16.0934 0 0
5:54 am 05:54 Mostly Clear 71 21.7 60 15.6 68 68 NNW 9 15 29.85 1011 10 16.0934 0.001 0.001
6:54 am 06:54 Mostly Sunny 70 21.1 60 15.6 71 71 N 17 28 29.84 1010 10 16.0934 0 0
7:54 am 07:54 Mostly Sunny 71 21.7 60 15.6 68 68 N 9 15 29.86 1011 10 16.0934 0 0
8:54 am 08:54 Sunny 73 22.8 61 16.1 66 66 NE 10 17 29.88 1012 10 16.0934 0.001 0.001
9:54 am 09:54 Sunny 79 26.1 61 16.1 54 54 NNE 14 22 29.88 1012 10 16.0934 0 0
10:54 am 10:54 Sunny 81 27.2 59 15 47 47 NE 5 7 29.87 1011 10 16.0934 0 0
11:54 am 11:54 Sunny 86 30 58 14.4 39 39 ENE 5 7 29.85 1011 10 16.0934 0 0
12:54 pm 12:54 Sunny 89 31.7 56 13.3 33 33 E 7 11 29.84 1011 10 16.0934 0 0
1:54 pm 13:54 Sunny 90 32.2 55 12.8 31 31 VRB 5 7 29.82 1010 10 16.0934 0 0
2:54 pm 14:54 Sunny 91 32.8 56 13.3 31 31 ENE 5 7 29.8 1009 10 16.0934 0 0
3:54 pm 15:54 Sunny 92 33.3 57 13.9 31 31 undefined N/A 29.78 1008 10 16.0934 0 0
4:54 pm 16:54 Sunny 92 33.3 58 14.4 32 32 VRB 7 11 29.75 1008 10 16.0934 0 0
5:54 pm 17:54 Sunny 92 33.3 58 14.4 32 32 Calm 29.74 1007 10 16.0934 0 0
6:54 pm 18:54 Sunny 92 33.3 57 13.9 31 31 Calm 29.72 1006 10 16.0934 0 0
7:54 pm 19:54 Sunny 89 31.7 56 13.3 33 33 Calm 29.73 1007 10 16.0934 0 0
8:54 pm 20:54 Sunny 85 29.4 59 15 42 42 Calm 29.73 1007 10 16.0934 0 0
9:54 pm 21:54 Clear 82 27.8 61 16.1 49 49 ENE 5 7 29.75 1008 10 16.0934 0 0
10:54 pm 22:54 Mostly Cloudy with Nearby Thunderstorms 73 22.8 60 15.6 64 64 NNW 23 37 29.81 1009 7 11.26538 0.001 0.001
11:00 pm 23:00 Windy with Storms Likely 70 21.1 62 16.7 76 76 NW 30 48 29.81 1010 9 14.48406 0.001 0.001
11:15 pm 23:15 Cloudy with Heavy Thunderstorms 68 20 60 15.6 76 76 W 16 26 29.86 1011 5 8.0467 0.03 0.762
11:39 pm 23:39 Cloudy with Nearby Thunderstorms 68 20 62 16.7 81 81 W 8 13 29.84 1010 4 6.43736 0.17 4.318
11:54 pm 23:54 Cloudy with Light Thunderstorms 67 19.4 61 16.1 81 81 ENE 6 9 29.82 1010 6 9.65604 0.2 5.08

Powered by AerisWeather